FW9204 Weather Reports


time (UTC)temp
C
wind
direction
speed
KPH
gust
KPH
rain 1hr
cm
rain 24hr
cm
rain mn
cm
humidity
%
barometer
mb
20260503230542 15 0 1.6 4.8 0.00 0.03 0.00 51 1019.2
20260503230050 15 5 0.0 4.8 0.00 0.03 0.00 50 1019.3
20260503225545 15 0 1.6 9.7 0.00 0.03 0.00 47 1019.4
20260503225041 15 280 0.0 9.7 0.00 0.03 0.00 49 1019.6
20260503224545 15 0 1.6 9.7 0.00 0.03 0.00 51 1019.6
20260503224041 15 0 1.6 4.8 0.00 0.03 0.00 48 1019.7
20260503223542 15 182 0.0 4.8 0.00 0.03 0.00 48 1019.7
20260503223046 15 128 1.6 4.8 0.00 0.03 0.00 49 1019.8
20260503222541 16 167 1.6 4.8 0.00 0.03 0.00 48 1019.8
20260503222043 16 199 1.6 4.8 0.00 0.03 0.00 47 1019.9
20260503221556 16 276 1.6 6.4 0.00 0.03 0.00 47 1019.9
20260503221042 16 284 1.6 6.4 0.00 0.03 0.00 45 1020.0
20260503220543 16 201 0.0 8.0 0.00 0.03 0.00 44 1020.0
20260503220056 16 0 1.6 8.0 0.00 0.03 0.00 44 1020.1
20260503215542 16 300 1.6 6.4 0.00 0.03 0.00 44 1020.0
20260503215042 16 292 1.6 8.0 0.00 0.03 0.00 45 1020.0
20260503214548 16 0 3.2 8.0 0.00 0.03 0.00 45 1020.0
20260503214045 16 188 1.6 6.4 0.00 0.03 0.00 43 1020.2
20260503213541 16 307 1.6 6.4 0.00 0.03 0.00 45 1020.3
20260503213055 16 0 1.6 6.4 0.00 0.03 0.00 47 1020.2
20260503212544 16 281 1.6 11.3 0.00 0.03 0.00 45 1020.3
20260503212040 16 0 1.6 11.3 0.00 0.03 0.00 45 1020.2
20260503211606 16 245 1.6 6.4 0.00 0.03 0.00 44 1020.4
20260503211041 17 256 1.6 8.0 0.00 0.03 0.00 43 1020.5
20260503210545 17 0 1.6 9.7 0.00 0.03 0.00 45 1020.4
20260503210051 17 89 4.8 9.7 0.00 0.03 0.00 43 1020.4
20260503205542 17 234 1.6 9.7 0.00 0.03 0.00 42 1020.4
20260503205042 17 302 1.6 9.7 0.00 0.03 0.00 41 1020.4
20260503204553 17 284 1.6 9.7 0.00 0.03 0.00 41 1020.5
20260503204041 17 257 3.2 9.7 0.00 0.03 0.00 43 1020.6
20260503203541 17 278 1.6 8.0 0.00 0.03 0.00 38 1020.6
20260503203105 17 275 1.6 6.4 0.00 0.03 0.00 38 1020.7
20260503202544 17 0 3.2 6.4 0.00 0.03 0.00 39 1020.9
20260503202041 17 236 1.6 6.4 0.00 0.03 0.00 36 1020.9
20260503201549 17 209 3.2 6.4 0.00 0.03 0.00 35 1021.0
20260503201041 17 0 1.6 9.7 0.00 0.03 0.00 36 1021.0
20260503200541 17 229 3.2 9.7 0.00 0.03 0.00 41 1021.1
20260503200051 17 250 1.6 6.4 0.00 0.03 0.00 41 1021.1
20260503195541 17 150 1.6 8.0 0.00 0.03 0.00 43 1021.1
20260503195041 17 0 3.2 8.0 0.00 0.03 0.00 40 1021.2
20260503194554 17 95 3.2 6.4 0.00 0.03 0.00 42 1021.4
20260503194044 17 205 1.6 8.0 0.00 0.03 0.00 42 1021.4
20260503193541 17 0 3.2 8.0 0.00 0.03 0.00 42 1021.4
20260503193051 17 293 1.6 8.0 0.00 0.03 0.00 44 1021.6
20260503192540 17 327 1.6 9.7 0.00 0.03 0.00 48 1021.6
20260503192040 17 151 4.8 9.7 0.00 0.03 0.00 46 1021.7
20260503191554 17 116 1.6 8.0 0.00 0.03 0.00 44 1021.7
20260503191043 17 284 3.2 9.7 0.00 0.03 0.00 46 1021.8
20260503190541 17 0 0.0 9.7 0.00 0.03 0.00 49 1021.8
20260503190055 17 208 1.6 8.0 0.00 0.03 0.00 47 1022.0
20260503185541 17 248 3.2 9.7 0.00 0.03 0.00 46 1022.1
20260503185041 17 313 3.2 11.3 0.00 0.03 0.00 50 1022.1
20260503184554 17 301 1.6 11.3 0.00 0.03 0.00 51 1022.1
20260503184041 17 22 3.2 9.7 0.00 0.03 0.00 53 1022.1
20260503183540 16 136 3.2 9.7 0.00 0.03 0.00 51 1022.2
20260503183048 16 226 1.6 12.9 0.00 0.03 0.00 51 1022.2
20260503182541 16 215 3.2 12.9 0.00 0.03 0.00 48 1022.3
20260503182042 16 113 1.6 6.4 0.00 0.03 0.00 50 1022.3
20260503181601 16 143 1.6 6.4 0.00 0.03 0.00 52 1022.2
20260503181042 16 302 1.6 9.7 0.00 0.03 0.00 52 1022.3
20260503180543 16 290 1.6 9.7 0.00 0.03 0.00 53 1022.4
20260503180053 16 0 3.2 9.7 0.00 0.03 0.00 47 1022.3
20260503175541 15 263 1.6 6.4 0.00 0.03 0.00 50 1022.6
20260503175040 15 252 1.6 6.4 0.00 0.03 0.00 46 1022.6
20260503174550 15 88 3.2 6.4 0.00 0.03 0.00 48 1022.6
20260503174041 15 205 1.6 8.0 0.00 0.03 0.00 47 1022.6
20260503173541 15 34 3.2 8.0 0.00 0.03 0.00 52 1022.9
20260503173057 15 0 1.6 6.4 0.00 0.03 0.00 48 1022.9
20260503172541 15 213 3.2 6.4 0.00 0.03 0.00 52 1022.9
20260503172041 15 0 1.6 9.7 0.00 0.03 0.00 53 1023.0
20260503171549 15 0 1.6 9.7 0.00 0.03 0.00 48 1023.0
20260503171041 14 102 1.6 9.7 0.00 0.03 0.00 52 1023.1
20260503170541 14 254 0.0 9.7 0.00 0.03 0.00 53 1023.2
20260503150541 10 136 1.6 6.4 0.00 0.03 0.00 64 1024.1
20260503131042 4 0 0.0 3.2 0.00 0.03 0.00 96 1023.9
20260503130539 4 0 0.0 1.6 0.00 0.03 0.00 96 1024.0
20260503110540 1 0 0.0 0.0 0.00 0.03 0.00 94 1022.6
20260503081554 2 0 0.0 0.0 0.00 0.03 0.00 94 1021.8
20260503081042 2 0 0.0 0.0 0.00 0.03 0.00 94 1021.9
20260503080544 2 0 0.0 0.0 0.00 0.03 0.00 94 1021.6
20260503072542 3 0 0.0 0.0 0.00 0.03 0.00 94 1021.4
20260503072042 3 0 0.0 0.0 0.00 0.03 0.00 94 1021.4
20260503071558 3 0 0.0 0.0 0.00 0.03 0.00 94 1021.3
20260503071042 3 0 0.0 0.0 0.00 0.03 0.00 93 1021.3
20260503070542 3 0 0.0 0.0 0.00 0.03 0.00 93 1021.3
20260503060108 3 0 0.0 0.0 0.00 0.03 0.00 93 1021.2
20260503055043 3 0 0.0 0.0 0.00 0.03 0.00 93 1021.1
20260503054549 3 0 0.0 0.0 0.00 0.03 0.00 93 1021.3
20260503054042 3 0 0.0 0.0 0.00 0.03 0.00 93 1021.2
20260503053542 3 0 0.0 0.0 0.00 0.03 0.00 93 1021.2
20260503053050 4 0 0.0 0.0 0.00 0.03 0.00 93 1021.1
20260503052542 4 0 0.0 0.0 0.00 0.03 0.00 93 1021.2
20260503052043 4 0 0.0 0.0 0.00 0.03 0.00 92 1021.2
20260503051552 4 0 0.0 0.0 0.00 0.03 0.00 92 1021.2
20260503051042 4 0 0.0 0.0 0.00 0.03 0.00 92 1021.0
20260503050539 4 0 0.0 0.0 0.00 0.03 0.00 92 1021.0
20260503050055 5 0 0.0 0.0 0.00 0.03 0.00 92 1021.0
20260503045541 5 0 0.0 0.0 0.00 0.03 0.03 92 1020.9
20260503045042 5 0 0.0 0.0 0.00 0.03 0.03 92 1020.9
20260503044556 5 0 0.0 0.0 0.00 0.03 0.03 92 1021.0
20260503044046 5 0 0.0 0.0 0.00 0.03 0.03 92 1021.0
20260503043542 5 0 0.0 0.0 0.00 0.03 0.03 92 1021.0
20260503043055 5 0 0.0 0.0 0.00 0.03 0.03 92 1021.0
20260503042542 5 0 0.0 0.0 0.00 0.03 0.03 92 1020.9
20260503042042 5 0 0.0 0.0 0.00 0.03 0.03 92 1020.9
20260503041549 6 0 0.0 0.0 0.00 0.03 0.03 93 1020.9
20260503041041 6 0 0.0 0.0 0.00 0.03 0.03 93 1020.9
20260503040541 6 0 0.0 0.0 0.00 0.03 0.03 93 1020.8
20260503040055 6 0 0.0 0.0 0.00 0.03 0.03 93 1020.7
20260503035541 6 0 0.0 0.0 0.00 0.03 0.03 93 1020.7
20260503035042 6 0 0.0 0.0 0.00 0.03 0.03 93 1020.6
20260503034551 6 0 0.0 0.0 0.00 0.03 0.03 93 1020.7
20260503034043 6 0 0.0 0.0 0.00 0.03 0.03 93 1020.7
20260503033546 6 0 0.0 0.0 0.00 0.03 0.03 93 1020.8
20260503033103 6 0 0.0 0.0 0.00 0.03 0.03 93 1020.8
20260503032542 6 0 0.0 0.0 0.00 0.03 0.03 93 1020.8
20260503032042 6 0 0.0 0.0 0.00 0.03 0.03 93 1020.8
20260503031548 5 0 0.0 0.0 0.00 0.03 0.03 92 1020.8
20260503031041 5 0 0.0 0.0 0.00 0.03 0.03 92 1020.7
20260503030542 5 0 0.0 0.0 0.00 0.03 0.03 92 1020.7
20260503030051 5 0 0.0 0.0 0.00 0.03 0.03 92 1020.7
20260503025544 5 0 0.0 0.0 0.00 0.03 0.03 91 1020.6
20260503025041 6 0 0.0 0.0 0.00 0.03 0.03 91 1020.5
20260503024552 6 0 0.0 0.0 0.00 0.03 0.03 90 1020.5
20260503024041 6 0 0.0 0.0 0.00 0.03 0.03 91 1020.6
20260503023544 6 0 0.0 0.0 0.00 0.03 0.03 91 1020.6
20260503023101 6 0 0.0 0.0 0.00 0.03 0.03 90 1020.5
20260503022542 6 0 0.0 0.0 0.00 0.03 0.03 90 1020.5
20260503022042 6 0 0.0 0.0 0.00 0.03 0.03 90 1020.6
20260503021554 6 0 0.0 0.0 0.00 0.03 0.03 90 1020.6
20260503021042 6 0 0.0 0.0 0.03 0.03 0.03 90 1020.5
20260503020542 7 0 0.0 0.0 0.03 0.03 0.03 90 1020.5
20260503020046 7 0 0.0 0.0 0.03 0.03 0.03 89 1020.5
20260503015541 7 0 0.0 0.0 0.03 0.03 0.03 89 1020.5
20260503015041 7 0 0.0 0.0 0.03 0.03 0.03 89 1020.5
20260503014549 7 0 0.0 0.0 0.03 0.03 0.03 89 1020.5
20260503014044 7 0 0.0 3.2 0.03 0.03 0.03 89 1020.5
20260503013542 7 0 0.0 3.2 0.03 0.03 0.03 89 1020.4
20260503013104 7 0 0.0 3.2 0.03 0.03 0.03 88 1020.5
20260503012542 7 0 0.0 3.2 0.03 0.03 0.03 88 1020.5
20260503012052 7 285 0.0 4.8 0.03 0.03 0.03 87 1020.5
20260503011602 7 282 1.6 4.8 0.03 0.03 0.03 87 1020.3
20260503011045 8 281 1.6 4.8 0.00 0.00 0.00 86 1020.3
20260503010541 8 98 1.6 4.8 0.00 0.00 0.00 85 1020.2
20260503010055 8 285 3.2 6.4 0.00 0.00 0.00 82 1020.2
20260503005545 8 288 1.6 6.4 0.00 0.00 0.00 80 1020.0
20260503005042 9 273 1.6 6.4 0.00 0.00 0.00 78 1019.9
20260503004548 9 290 1.6 4.8 0.00 0.00 0.00 76 1019.8
20260503004041 9 294 1.6 3.2 0.00 0.00 0.00 74 1019.6
20260503003541 9 304 1.6 6.4 0.00 0.00 0.00 74 1019.5
20260503003059 9 0 0.0 8.0 0.00 0.00 0.00 73 1019.3
20260503002541 10 205 0.0 8.0 0.00 0.00 0.00 72 1019.1
20260503002041 10 257 1.6 8.0 0.00 0.00 0.00 70 1019.0
20260503001611 10 63 1.6 8.0 0.00 0.00 0.00 69 1018.8
20260503001042 10 40 1.6 8.0 0.00 0.00 0.00 68 1018.7
20260503000543 11 0 0.0 4.8 0.00 0.00 0.00 65 1018.7
20260503000114 11 63 0.0 4.8 0.00 0.00 0.00 64 1018.4
20260502235542 11 288 1.6 6.4 0.00 0.00 0.00 63 1018.4
20260502235042 11 234 1.6 6.4 0.00 0.00 0.00 62 1018.3
20260502234557 11 115 0.0 3.2 0.00 0.00 0.00 64 1018.4
20260502234043 11 0 0.0 3.2 0.00 0.00 0.00 65 1018.4
20260502233541 11 0 0.0 3.2 0.00 0.00 0.00 64 1018.3
20260502233051 11 247 0.0 3.2 0.00 0.00 0.00 64 1018.3
20260502232541 11 0 0.0 3.2 0.00 0.00 0.00 60 1018.3
20260502232041 11 0 0.0 3.2 0.00 0.00 0.00 61 1018.1
20260502231549 11 0 0.0 3.2 0.00 0.00 0.00 61 1018.3
20260502231042 12 0 0.0 6.4 0.00 0.00 0.00 59 1018.3